Weather History for KAYS - August, 2013

Change the Weather History Date:

Sunday, August 11, 2013

  Actual Average (KAMG) Record (KAMG)
Temperature  
Mean Temperature 86 °F 82 °F  
Max Temperature 96 °F 92 °F 100 °F (2007)
Min Temperature 77 °F 72 °F 61 °F (1954)
Degree Days  
Heating Degree Days 0 0  
Month to date heating degree days 0  
Since 1 June heating degree days 0  
Since 1 July heating degree days 0  
Cooling Degree Days 22 17  
Month to date cooling degree days 187  
Year to date cooling degree days 1589  
Since 1 June cooling degree days 1159  
Growing Degree Days 36 (Base 50)    
Moisture  
Dew Point 79 °F    
Average Humidity 80    
Maximum Humidity 100    
Minimum Humidity 50    
Precipitation  
Precipitation 0.00 in 0.19 in 1.77 in (2007)
Month to date precipitation 2.12  
Year to date precipitation 30.92  
Snow  
Snow 0.00 in 0.00 in 0.00 in ()
Month to date snowfall 0.0  
Since 1 June snowfall 0.0  
Since 1 July snowfall 0.0  
Snow Depth -    
Sea Level Pressure  
Sea Level Pressure 30.12 in    
Wind  
Wind Speed 2 mph (South)    
Max Wind Speed 12 mph    
Max Gust Speed 16 mph    
Visibility 10 miles    
Events      
T = Trace of Precipitation, MM = Missing Value Source: NWS Daily Summary

Daily Weather History Graph

Daily Weather History Graph

Search for Another Location

Airport or City:

Trip Planner

Search our weather history database for the weather conditions in past years. The results will help you decide how hot, cold, wet, or windy it might be!

Date:

Astronomy

Aug. 11, 2013 Rise Set
Actual Time 6:52 AM EDT 8:16 PM EDT
Civil Twilight 6:27 AM EDT 8:41 PM EDT
Nautical Twilight 5:56 AM EDT 9:12 PM EDT
Astronomical Twilight 5:24 AM EDT 9:44 PM EDT
Moon 11:16 AM EDT (8/11) 10:55 PM EDT (8/11)
Length of Visible Light 14h 14m
Length of Day
13h 23m
Waxing Crescent, 22% of the Moon is Illuminated
Aug 11
Waxing Crescent
Aug 14
First Quarter
Aug 20
Full
Aug 28
Last Quarter
Sep 5
New

Hourly Weather History & Observations

Time (EDT) Temp. Heat Index Dew Point Humidity Pressure Visibility Wind Dir Wind Speed Gust Speed Precip Events Conditions
12:15 AM 82.4 °F 90.9 °F 77.0 °F 84% 30.13 in 10.0 mi South 3.5 mph - N/A   Clear
12:35 AM 82.4 °F 90.9 °F 77.0 °F 84% 30.13 in 10.0 mi Calm Calm - N/A   Clear
12:55 AM 82.4 °F 90.9 °F 77.0 °F 84% 30.13 in 10.0 mi SSE 3.5 mph - N/A   Clear
1:15 AM 80.6 °F 87.1 °F 77.0 °F 89% 30.13 in 10.0 mi Calm Calm - N/A   Clear
1:35 AM 80.6 °F 87.1 °F 77.0 °F 89% 30.13 in 10.0 mi Calm Calm - N/A   Clear
1:55 AM 80.6 °F 87.1 °F 77.0 °F 89% 30.13 in 10.0 mi Calm Calm - N/A   Clear
2:15 AM 80.6 °F 87.1 °F 77.0 °F 89% 30.13 in 10.0 mi Calm Calm - N/A   Clear
2:35 AM 80.6 °F 88.1 °F 78.8 °F 94% 30.12 in 10.0 mi South 3.5 mph - N/A   Clear
2:55 AM 80.6 °F 88.1 °F 78.8 °F 94% 30.12 in 10.0 mi South 3.5 mph - N/A   Clear
3:15 AM 80.6 °F 88.1 °F 78.8 °F 94% 30.11 in 10.0 mi South 3.5 mph - N/A   Clear
3:35 AM 80.6 °F 88.1 °F 78.8 °F 94% 30.12 in 10.0 mi Calm Calm - N/A   Clear
3:55 AM 80.6 °F 88.1 °F 78.8 °F 94% 30.12 in 10.0 mi Calm Calm - N/A   Clear
4:15 AM 78.8 °F - 78.8 °F 100% 30.12 in 10.0 mi Calm Calm - N/A   Clear
4:35 AM 78.8 °F - 78.8 °F 100% 30.12 in 10.0 mi SSW 3.5 mph - N/A   Clear
4:55 AM 78.8 °F - 77.0 °F 94% 30.13 in 10.0 mi Calm Calm - N/A   Clear
5:15 AM 78.8 °F - 77.0 °F 94% 30.13 in 10.0 mi Calm Calm - N/A   Clear
5:35 AM 78.8 °F - 77.0 °F 94% 30.14 in 10.0 mi Calm Calm - N/A   Clear
5:55 AM 78.8 °F - 77.0 °F 94% 30.14 in 10.0 mi Calm Calm - N/A   Clear
6:15 AM 78.8 °F - 77.0 °F 94% 30.14 in 10.0 mi Calm Calm - N/A   Clear
6:35 AM 78.8 °F - 77.0 °F 94% 30.15 in 10.0 mi Calm Calm - N/A   Clear
6:55 AM 77.0 °F - 77.0 °F 100% 30.15 in 7.0 mi Calm Calm - N/A   Clear
7:15 AM 77.0 °F - 77.0 °F 100% 30.16 in 10.0 mi Calm Calm - N/A   Clear
7:35 AM 78.8 °F - 77.0 °F 94% 30.16 in 10.0 mi Calm Calm - N/A   Clear
7:55 AM 78.8 °F - 78.8 °F 100% 30.16 in 10.0 mi Calm Calm - N/A   Clear
8:15 AM 80.6 °F 88.1 °F 78.8 °F 94% 30.16 in 10.0 mi Calm Calm - N/A   Clear
8:35 AM 82.4 °F 92.4 °F 78.8 °F 89% 30.17 in 10.0 mi Calm Calm - N/A   Clear
8:55 AM 82.4 °F 92.4 °F 78.8 °F 89% 30.17 in 10.0 mi SW 3.5 mph - N/A   Clear
9:15 AM 84.2 °F 98.3 °F 80.6 °F 89% 30.17 in 10.0 mi SW 4.6 mph - N/A   Clear
9:35 AM 84.2 °F 98.3 °F 80.6 °F 89% 30.17 in 10.0 mi Calm Calm - N/A   Clear
9:55 AM 87.8 °F 104.9 °F 80.6 °F 79% 30.17 in 10.0 mi Calm Calm - N/A   Clear
10:15 AM 89.6 °F 108.2 °F 80.6 °F 75% 30.17 in 10.0 mi Calm Calm - N/A   Clear
10:35 AM 89.6 °F 104.7 °F 78.8 °F 70% 30.17 in 10.0 mi Calm Calm - N/A   Scattered Clouds
10:55 AM 89.6 °F 104.7 °F 78.8 °F 70% 30.16 in 10.0 mi SSW 3.5 mph - N/A   Scattered Clouds
11:15 AM 89.6 °F 104.7 °F 78.8 °F 70% 30.16 in 10.0 mi Calm Calm - N/A   Scattered Clouds
11:35 AM 91.4 °F 107.2 °F 78.8 °F 66% 30.16 in 10.0 mi WSW 4.6 mph - N/A   Scattered Clouds
11:55 AM 91.4 °F 107.2 °F 78.8 °F 66% 30.16 in 10.0 mi Calm Calm - N/A   Clear
12:15 PM 91.4 °F 105.1 °F 77.0 °F 63% 30.15 in 10.0 mi Calm Calm - N/A   Clear
12:35 PM 93.2 °F 110.2 °F 78.8 °F 63% 30.15 in 10.0 mi South 3.5 mph - N/A   Clear
12:55 PM 93.2 °F 110.2 °F 78.8 °F 63% 30.14 in 10.0 mi SSW 5.8 mph - N/A   Scattered Clouds
1:15 PM 95.0 °F 112.2 °F 78.8 °F 59% 30.14 in 10.0 mi Calm Calm - N/A   Clear
1:35 PM 93.2 °F 105.0 °F 75.2 °F 56% 30.14 in 10.0 mi Calm Calm - N/A   Clear
1:55 PM 93.2 °F 105.0 °F 75.2 °F 56% 30.13 in 10.0 mi WSW 3.5 mph - N/A   Clear
2:15 PM 95.0 °F 109.7 °F 77.0 °F 56% 30.13 in 10.0 mi SSW 3.5 mph - N/A   Scattered Clouds
2:35 PM 96.8 °F 114.8 °F 78.8 °F 56% 30.12 in 10.0 mi Calm Calm - N/A   Clear
2:55 PM 96.8 °F 109.6 °F 75.2 °F 50% 30.11 in 10.0 mi Calm Calm - N/A   Clear
3:15 PM 93.2 °F 107.2 °F 77.0 °F 59% 30.10 in 10.0 mi NNW 3.5 mph - N/A   Mostly Cloudy
3:35 PM 82.4 °F 89.5 °F 75.2 °F 79% 30.11 in 0.5 mi ENE 11.5 mph - N/A   Overcast
3:55 PM 86.0 °F 99.3 °F 78.8 °F 79% 30.11 in 10.0 mi ENE 10.4 mph - N/A   Scattered Clouds
4:15 PM 91.4 °F 111.0 °F 80.6 °F 71% 30.09 in 10.0 mi ENE 4.6 mph - N/A   Scattered Clouds
4:35 PM 93.2 °F 110.2 °F 78.8 °F 63% 30.08 in 10.0 mi Calm Calm - N/A   Clear
4:55 PM 95.0 °F 112.2 °F 78.8 °F 59% 30.07 in 10.0 mi Calm Calm - N/A   Clear
5:15 PM 95.0 °F 112.2 °F 78.8 °F 59% 30.07 in 10.0 mi Calm Calm - N/A   Clear
5:35 PM 95.0 °F 112.2 °F 78.8 °F 59% 30.07 in 10.0 mi Calm Calm - N/A   Clear
5:55 PM 95.0 °F 112.2 °F 78.8 °F 59% 30.07 in 10.0 mi Calm Calm - N/A   Clear
6:15 PM 93.2 °F 110.2 °F 78.8 °F 63% 30.06 in 10.0 mi Calm Calm - N/A   Clear
6:35 PM 93.2 °F 110.2 °F 78.8 °F 63% 30.06 in 10.0 mi North 3.5 mph - N/A   Clear
6:55 PM 91.4 °F 111.0 °F 80.6 °F 71% 30.06 in 10.0 mi Calm Calm - N/A   Clear
7:15 PM 91.4 °F 111.0 °F 80.6 °F 71% 30.06 in 10.0 mi Calm Calm - N/A   Clear
7:35 PM 91.4 °F 114.3 °F 82.4 °F 75% 30.06 in 10.0 mi Calm Calm - N/A   Clear
7:55 PM 91.4 °F 111.0 °F 80.6 °F 71% 30.07 in 10.0 mi Calm Calm - N/A   Mostly Cloudy
8:15 PM 87.8 °F 104.9 °F 80.6 °F 79% 30.08 in 7.0 mi South 8.1 mph 16.1 mph N/A   Mostly Cloudy
8:35 PM 84.2 °F 100.6 °F 82.4 °F 94% 30.08 in 10.0 mi Calm Calm - N/A   Overcast
8:55 PM 82.4 °F 94.0 °F 80.6 °F 94% 30.09 in 10.0 mi Calm Calm - N/A   Overcast
9:15 PM 84.2 °F 98.3 °F 80.6 °F 89% 30.10 in 10.0 mi SE 6.9 mph - N/A   Overcast
9:35 PM 86.0 °F 99.3 °F 78.8 °F 79% 30.11 in 10.0 mi SSE 5.8 mph 16.1 mph N/A   Mostly Cloudy
9:55 PM 84.2 °F 96.1 °F 78.8 °F 84% 30.12 in 10.0 mi SSE 8.1 mph - N/A   Scattered Clouds
10:15 PM 84.2 °F 96.1 °F 78.8 °F 84% 30.13 in 2.5 mi SSE 6.9 mph - N/A   Mostly Cloudy
10:35 PM 84.2 °F 96.1 °F 78.8 °F 84% 30.14 in 10.0 mi West 9.2 mph - N/A   Mostly Cloudy
10:55 PM 82.4 °F 92.4 °F 78.8 °F 89% 30.13 in 1.2 mi SW 9.2 mph 16.1 mph N/A   Overcast
11:15 PM 80.6 °F 88.1 °F 78.8 °F 94% 30.12 in 10.0 mi South 5.8 mph - N/A   Mostly Cloudy
11:35 PM 80.6 °F 88.1 °F 78.8 °F 94% 30.11 in 10.0 mi South 5.8 mph - N/A   Clear
11:55 PM 80.6 °F 88.1 °F 78.8 °F 94% 30.12 in 10.0 mi SSW 3.5 mph - N/A   Clear